Home > Weather > Vientiane > Past weeks

Flag for Laos Past Weather in Vientiane, Laos — Yesterday and Last 2 Weeks

Now
84 °F

Thunderstorms. Passing clouds.


Feels Like: 98 °F
Forecast: 76 / 93 °F
Wind: 7 mph from East

Location: Vientiane Airport

Current Time: Jun 28, 2016 at 1:42:58 AM

Latest Report: Jun 27, 2016 at 11:00 PM


Visibility: 1 mi

Pressure: 29.68 "Hg

Humidity: 89%

Dew Point: 81 °F

Location of VientianeLocation

Past Weather in Vientiane — Graph

°F

Vientiane Temperature Yesterday

Maximum temperature yesterday: 93 °F (at 4:00 PM)
Minimum temperature yesterday: 77 °F (at 6:00 AM)
Average temperature yesterday: 87 °F

High & Low Weather Summary for the Past Weeks

 TemperatureHumidityPressure
High95 °F (Jun 13, 3:00 PM)100% (Jun 23, 6:00 AM)29.86 "Hg (Jun 23, 6:00 AM)
Low75 °F (Jun 18, 6:00 AM)53% (Jun 14, 3:00 PM)29.56 "Hg (Jun 15, 5:00 PM)
Average85 °F78%29.71 "Hg
* Reported Jun 12 11:00 PM — Jun 27 11:00 PM, Vientiane, Weather by CustomWeather, © 2016

Note: Actual official high and low records may vary slightly from our data, if they occured in-between our weather recording intervals... More about our weather records

Advertising

Vientiane Weather History for the Previous 24 Hours

Scroll right to see more
 ConditionsComfort  
Time TempWeatherWind HumidityBarometerVisibility
11:00 PM
Mon, Jun 27
84 °FThunderstorms. Passing clouds.7 mph89%29.68 "Hg1 mi
10:30 PM86 °FThunderstorms. Partly cloudy.5 mph66%29.65 "Hg2 mi
10:00 PM86 °FThunderstorms. Partly cloudy.2 mph66%29.65 "Hg2 mi
9:30 PM86 °FThunderstorms. Passing clouds.2 mph66%29.62 "Hg2 mi
9:00 PM86 °FThunderstorms. Passing clouds.2 mph66%29.62 "Hg2 mi
8:30 PM86 °FFog.2 mph79%29.62 "Hg2 mi
8:00 PM86 °FFog.2 mph79%29.59 "Hg2 mi
7:30 PM86 °FFog.2 mph79%29.62 "Hg2 mi
7:00 PM90 °FPassing clouds.2 mph75%29.59 "Hg4 mi
6:30 PM90 °FScattered clouds.2 mph71%29.59 "Hg5 mi
6:00 PM91 °FScattered clouds.2 mph67%29.59 "Hg6 mi
5:30 PM91 °FDrizzle. Broken clouds.2 mph67%29.56 "Hg6 mi
5:00 PM91 °FBroken clouds.2 mph67%29.56 "HgN/A
4:30 PM93 °FScattered clouds.2 mph63%29.56 "HgN/A
4:00 PM93 °FBroken clouds.2 mph63%29.56 "HgN/A
3:30 PM91 °FBroken clouds.2 mph67%29.59 "Hg6 mi
3:00 PM91 °FBroken clouds.2 mph67%29.59 "Hg6 mi
2:30 PM90 °FLight rain. Broken clouds.2 mph75%29.62 "Hg6 mi
2:00 PM90 °FRain. Broken clouds.2 mph75%29.62 "Hg5 mi
1:30 PM91 °FBroken clouds.2 mph67%29.65 "HgN/A
12:30 PM90 °FScattered clouds.2 mph71%29.68 "HgN/A
12:00 PM90 °FBroken clouds.2 mph71%29.68 "HgN/A
11:00 AM88 °FScattered clouds.2 mph75%29.71 "HgN/A
10:30 AM86 °FScattered clouds.2 mph79%29.74 "HgN/A
10:00 AM86 °FScattered clouds.2 mph79%29.74 "HgN/A
9:30 AM84 °FScattered clouds.2 mph79%29.74 "HgN/A
9:00 AM84 °FScattered clouds.2 mph79%29.74 "HgN/A
8:30 AM82 °FScattered clouds.2 mph84%29.74 "HgN/A
7:30 AM79 °FBroken clouds.2 mph94%29.71 "HgN/A
7:00 AM79 °FBroken clouds.2 mph94%29.71 "HgN/A
6:30 AM77 °FScattered clouds.2 mph94%29.68 "HgN/A
6:00 AM77 °FFog.2 mph94%29.68 "Hg3 mi
Weather by CustomWeather, © 2016

See weather overviewHow to use our weather pages